Koppie Airport

Jump to: basic info | weather | runways | comments

Related pages: nearby airports | nearby navaids | notams | map

Basic information (top)

Codes: 7IS5
Location: lon 42.121399, lat -88.378098, elev 890 ft / 271 m msl
Status: small_airport

Weather (top)

Current conditions for Dupage Airport 14nm (26km) SSE (rec'd 2014/12/18 06:52Z):

KDPA 180652Z 30007KT 10SM OVC020 M04/M09 A3027 RMK AO2 SLP262 T10441094

Airport forecast for Dupage Airport 14nm (26km) SSE (rec'd 2014/12/18 06:39Z):

TAF KDPA 180538Z 1806/1906 30006KT P6SM BKN020 
     FM180900 31004KT P6SM SCT020 BKN200 
     FM190100 VRB03KT P6SM SCT200

Runways (top)

N/S: 2,300 x 100 ft (701 x 30 m) — grass — not lighted

Latest comments (top)

No comments yet for Koppie Airport

More... (top)

See also NOTAMs and nearby airports and navaids, or visit the Koppie Airport page at the main OurAirports website..